Preview of NWS' New Version of Forecast
This preview is not operational and should not be used for support decisions.

Regional Weather Roundup (RWR)

Issued by Spokane, WA (OTX)

                            
136 
NZUS01 KOTX 212325
RWROTX

Eastern Washington/Northern Idaho Roundup     
National Weather Service, Spokane WA
400 PM PDT THU JUN 21 2018

Note: "fair" indicated few or no clouds below 12,000 feet with no
significant weather and/or obstructions to visibility.

...Northeast Washington and Northern Idaho Panhandle...
  
CITY           SKY/WX    TMP DP  RH WIND       PRES   REMARKS
Spokane Intl   PTSUNNY   77  54  44 SW12      29.97F                  
Spokane Downto MOSUNNY   80  55  42 SW12      29.96F                  
Coeur d Alene  MOSUNNY   74  58  57 S8        29.98F                  
Deer Park      MOSUNNY   78  56  46 SW9G18    29.96F                  
Sandpoint      MOSUNNY   75  54  46 S9        29.93F                  
Bonners Ferry  FAIR      73  57  56 SW9G20    29.89R                  

...Southeast Washington and southern Idaho Panhandle...
  
CITY           SKY/WX    TMP DP  RH WIND       PRES   REMARKS
Walla Walla    PTSUNNY   85  55  35 S8        29.93F                  
Pullman/Moscow PTSUNNY   73  59  61 SW10      30.03S                  
Lewiston       PTSUNNY   77  57  50 S7        29.97F                  
Lowell           N/A     72  64  76 CALM      29.98F                  
Grangeville    CLOUDY    66  55  68 CALM      30.05S                  

...Columbia Basin...
  
CITY           SKY/WX    TMP DP  RH WIND       PRES   REMARKS
Ephrata        PTSUNNY   89  50  26 SW13G20   29.88F                  
Moses Lake     PTSUNNY   89  48  24 SW9       29.90F                  
Pasco          PTSUNNY   91  54  28 S13G22    29.88F                  
Richland       MOCLDY    94  52  23 S13       29.86F HX  91           
Hermiston      MOSUNNY   96  50  20 W12G17    29.89F HX  93           
Pendleton      PTSUNNY   85  49  28 NW12      29.94F                  

...East Slopes Cascades...
  
CITY           SKY/WX    TMP DP  RH WIND       PRES   REMARKS
The Dalles     SUNNY     80  54  40 NW23G31   29.97F                  
Yakima         MOSUNNY   88  52  29 W8        29.89F                  
Ellensburg     MOSUNNY   85  46  25 NW25G35   29.95S                  
Stampede Pass  SUNNY     62  53  72 SW8       30.16R                  
Wenatchee      PTSUNNY   89  40  17 NW17      29.87S                  
Winthrop       RAIN      69  63  79 SE9       29.90R                  
Omak           CLOUDY    77  58  51 NW10      29.89S                  
Sunnyside      MOCLDY    78  47  33 W6        29.88F                  

...Southern British Columbia...
  
CITY           SKY/WX    TMP DP  RH WIND       PRES   REMARKS
Penticton      TSTM      72  61  68 VRB3      29.87S                  
Castlegar      PTSUNNY   75  57  53 S15       29.88S                  
Cranbrook      PTSUNNY   79  50  36 S14       29.86F                  
Osoyoos          N/A     81  59  47 SE8         N/A                   
Creston          N/A     77  57  50 S7          N/A                   

...Western Montana...
  
CITY           SKY/WX    TMP DP  RH WIND       PRES   REMARKS
Kalispell      CLOUDY    72  54  53 SW6       29.92F                  
Libby            N/A     81  52  36 S8        29.87F                  
Missoula       RAIN      63  55  75 CALM      30.00S                  

...Neighboring Cities...
  
CITY           SKY/WX    TMP DP  RH WIND       PRES   REMARKS
Seattle        CLOUDY    68  53  58 SW10      30.14F                  
Portland       CLOUDY    69  55  60 CALM      30.14S                  
Boise          MOSUNNY   81  50  33 NW15      30.02S                  
Great Falls    MOSUNNY   77  54  44 W16       29.89F                  
Calgary        PTSUNNY   77  48  36 E8        29.87R